Time,TemperatureF,DewpointF,PressureIn,WindDirection,WindDirectionDegrees,WindSpeedMPH,WindSpeedGustMPH,Humidity,HourlyPrecipIn,Conditions,Clouds,dailyrainin,SolarRadiationWatts/m^2,SoftwareType,DateUTC
2013-05-04 00:02:00,42.2,40.6,29.75,NW,313,13.8,13.8,94,0.00,RA,,0.00,0.0,WeatherDisplay:10.37,2013-05-03 23:02:00,
2013-05-04 00:07:00,42.3,40.7,29.75,SW,233,5.8,5.8,94,0.00,RA,,0.00,0.0,WeatherDisplay:10.37,2013-05-03 23:07:00,
2013-05-04 00:12:00,42.3,40.4,29.75,NNW,339,8.1,8.1,93,0.00,CLR,,0.00,0.0,WeatherDisplay:10.37,2013-05-03 23:12:00,
2013-05-04 00:17:00,42.5,40.6,29.75,NNW,329,5.8,5.8,93,0.00,CLR,,0.00,0.0,WeatherDisplay:10.37,2013-05-03 23:17:00,
2013-05-04 00:22:00,42.5,40.6,29.75,NNW,328,8.1,8.1,93,0.00,CLR,,0.00,0.0,WeatherDisplay:10.37,2013-05-03 23:22:00,
2013-05-04 00:28:00,42.6,40.7,29.75,NW,325,3.5,3.7,93,0.00,CLR,,0.00,0.0,WeatherDisplay:10.37,2013-05-03 23:28:00,
2013-05-04 00:33:00,42.6,40.7,29.75,NNW,332,5.8,5.8,93,0.00,CLR,,0.00,0.0,WeatherDisplay:10.37,2013-05-03 23:33:00,
2013-05-04 00:38:00,42.6,40.7,29.75,WNW,282,5.8,5.8,93,0.00,CLR,,0.00,0.0,WeatherDisplay:10.37,2013-05-03 23:38:00,
2013-05-04 00:43:00,42.6,40.7,29.75,WNW,284,3.5,3.5,93,0.00,CLR,,0.00,0.0,WeatherDisplay:10.37,2013-05-03 23:43:00,
2013-05-04 00:48:00,42.6,40.7,29.75,WNW,291,2.3,2.3,93,0.00,CLR,,0.00,0.0,WeatherDisplay:10.37,2013-05-03 23:48:00,
2013-05-04 00:53:00,42.6,40.7,29.76,WSW,237,3.5,3.5,93,0.00,CLR,,0.00,0.0,WeatherDisplay:10.37,2013-05-03 23:53:00,
2013-05-04 00:58:00,42.6,40.7,29.76,WSW,246,3.5,3.5,93,0.00,CLR,,0.00,0.0,WeatherDisplay:10.37,2013-05-03 23:58:00,
2013-05-04 01:03:00,42.5,40.6,29.75,NNW,332,5.8,5.8,93,0.00,CLR,,0.00,0.0,WeatherDisplay:10.37,2013-05-04 00:03:00,
2013-05-04 01:09:00,42.5,40.9,29.75,NW,313,4.6,4.6,94,0.00,CLR,,0.00,0.0,WeatherDisplay:10.37,2013-05-04 00:09:00,
2013-05-04 01:14:00,42.5,40.9,29.75,NW,304,3.5,3.5,94,0.00,CLR,,0.00,0.0,WeatherDisplay:10.37,2013-05-04 00:14:00,
2013-05-04 01:19:00,42.3,40.7,29.75,WNW,299,3.5,3.5,94,0.00,CLR,,0.00,0.0,WeatherDisplay:10.37,2013-05-04 00:19:00,
2013-05-04 01:24:00,42.2,40.6,29.75,WNW,301,2.3,2.3,94,0.00,CLR,,0.00,0.0,WeatherDisplay:10.37,2013-05-04 00:24:00,
2013-05-04 01:29:00,42.2,40.9,29.75,WNW,292,5.0,5.0,95,0.00,CLR,,0.00,0.0,WeatherDisplay:10.37,2013-05-04 00:29:00,
2013-05-04 01:34:00,42.1,40.8,29.75,WNW,294,2.3,2.3,95,0.00,CLR,,0.00,0.0,WeatherDisplay:10.37,2013-05-04 00:34:00,
2013-05-04 01:39:00,42.1,40.8,29.75,SW,226,1.0,1.0,95,0.00,CLR,,0.00,0.0,WeatherDisplay:10.37,2013-05-04 00:39:00,
2013-05-04 01:45:00,41.9,40.6,29.75,NNW,346,5.8,5.8,95,0.00,CLR,,0.00,0.0,WeatherDisplay:10.37,2013-05-04 00:45:00,
2013-05-04 01:50:00,41.8,40.5,29.75,NW,304,3.5,3.5,95,0.00,CLR,,0.00,0.0,WeatherDisplay:10.37,2013-05-04 00:50:00,
2013-05-04 01:55:00,41.8,40.5,29.75,West,278,3.5,3.5,95,0.00,CLR,,0.00,0.0,WeatherDisplay:10.37,2013-05-04 00:55:00,
2013-05-04 02:00:00,41.6,40.3,29.74,NW,316,7.0,7.0,95,0.00,CLR,,0.00,0.0,WeatherDisplay:10.37,2013-05-04 01:00:00,
2013-05-04 02:05:00,41.5,40.2,29.75,NW,322,4.6,4.6,95,0.00,CLR,,0.00,0.0,WeatherDisplay:10.37,2013-05-04 01:05:00,
2013-05-04 02:10:00,41.3,40.0,29.75,North,0,3.5,3.5,95,0.00,CLR,,0.00,0.0,WeatherDisplay:10.37,2013-05-04 01:10:00,
2013-05-04 02:15:00,41.2,39.9,29.75,North,349,1.0,1.0,95,0.00,CLR,,0.00,0.0,WeatherDisplay:10.37,2013-05-04 01:15:00,
2013-05-04 02:20:00,41.1,39.8,29.75,West,268,0.0,0.0,95,0.00,CLR,,0.00,0.0,WeatherDisplay:10.37,2013-05-04 01:20:00,
2013-05-04 02:26:00,40.9,39.6,29.75,WSW,241,2.0,2.0,95,0.00,CLR,,0.00,0.0,WeatherDisplay:10.37,2013-05-04 01:26:00,
2013-05-04 02:31:00,40.8,39.5,29.75,SW,233,0.0,0.0,95,0.00,CLR,,0.00,0.0,WeatherDisplay:10.37,2013-05-04 01:31:00,
2013-05-04 02:36:00,40.6,39.3,29.75,NNW,332,2.3,2.3,95,0.00,CLR,,0.00,0.0,WeatherDisplay:10.37,2013-05-04 01:36:00,
2013-05-04 02:41:00,40.6,39.5,29.75,WNW,287,2.3,2.3,96,0.00,CLR,,0.00,0.0,WeatherDisplay:10.37,2013-05-04 01:41:00,
2013-05-04 02:46:00,40.6,39.5,29.74,NW,316,4.6,4.6,96,0.00,CLR,,0.00,0.0,WeatherDisplay:10.37,2013-05-04 01:46:00,
2013-05-04 02:51:00,40.5,39.4,29.75,NW,326,3.5,3.5,96,0.00,CLR,,0.00,0.0,WeatherDisplay:10.37,2013-05-04 01:51:00,
2013-05-04 02:57:00,40.5,39.4,29.75,WNW,295,2.0,2.0,96,0.00,CLR,,0.00,0.0,WeatherDisplay:10.37,2013-05-04 01:57:00,
2013-05-04 03:02:00,40.5,39.4,29.75,NW,308,8.1,8.1,96,0.00,CLR,,0.00,0.0,WeatherDisplay:10.37,2013-05-04 02:02:00,
2013-05-04 03:07:00,40.5,39.4,29.75,SW,233,3.5,3.5,96,0.00,CLR,,0.00,0.0,WeatherDisplay:10.37,2013-05-04 02:07:00,
2013-05-04 03:12:00,40.3,39.3,29.75,NW,313,5.8,5.8,96,0.00,CLR,,0.00,0.0,WeatherDisplay:10.37,2013-05-04 02:12:00,
2013-05-04 03:17:00,40.3,39.3,29.75,WNW,301,1.2,0.0,96,0.00,CLR,,0.00,0.0,WeatherDisplay:10.37,2013-05-04 02:17:00,
2013-05-04 03:22:00,40.2,39.2,29.75,WSW,237,2.3,2.3,96,0.00,CLR,,0.00,0.0,WeatherDisplay:10.37,2013-05-04 02:22:00,
2013-05-04 03:27:00,40.1,39.1,29.75,SW,236,2.3,2.3,96,0.00,CLR,,0.00,0.0,WeatherDisplay:10.37,2013-05-04 02:27:00,
2013-05-04 03:32:00,39.9,38.9,29.75,SW,234,1.2,0.0,96,0.00,CLR,,0.00,0.0,WeatherDisplay:10.37,2013-05-04 02:32:00,
2013-05-04 03:37:00,39.6,38.6,29.75,West,277,0.0,0.0,96,0.00,CLR,,0.00,0.0,WeatherDisplay:10.37,2013-05-04 02:37:00,
2013-05-04 03:43:00,39.5,38.5,29.75,West,274,0.0,0.0,96,0.00,CLR,,0.00,0.0,WeatherDisplay:10.37,2013-05-04 02:43:00,
2013-05-04 03:48:00,39.3,38.3,29.75,West,278,1.2,0.0,96,0.00,CLR,,0.00,0.0,WeatherDisplay:10.37,2013-05-04 02:48:00,
2013-05-04 03:53:00,39.2,38.2,29.75,WSW,237,2.3,2.3,96,0.00,CLR,,0.00,0.0,WeatherDisplay:10.37,2013-05-04 02:53:00,
2013-05-04 03:58:00,39.1,38.1,29.75,SW,227,2.3,0.0,96,0.00,CLR,,0.00,0.0,WeatherDisplay:10.37,2013-05-04 02:58:00,
2013-05-04 04:03:00,38.9,37.9,29.75,WNW,302,0.0,0.0,96,0.00,CLR,,0.00,0.0,WeatherDisplay:10.37,2013-05-04 03:03:00,
2013-05-04 04:08:00,38.6,37.6,29.75,WNW,292,0.0,0.0,96,0.00,CLR,,0.00,0.0,WeatherDisplay:10.37,2013-05-04 03:08:00,
2013-05-04 04:13:00,38.5,37.5,29.75,West,272,3.5,3.5,96,0.00,CLR,,0.00,0.0,WeatherDisplay:10.37,2013-05-04 03:13:00,
2013-05-04 04:18:00,38.3,37.3,29.75,North,0,2.3,2.3,96,0.00,CLR,,0.00,0.0,WeatherDisplay:10.37,2013-05-04 03:18:00,
2013-05-04 04:23:00,38.3,37.3,29.75,NW,320,0.0,0.0,96,0.00,CLR,,0.00,0.0,WeatherDisplay:10.37,2013-05-04 03:23:00,
2013-05-04 04:28:00,38.0,37.0,29.75,North,0,0.0,0.0,96,0.00,CLR,,0.00,0.0,WeatherDisplay:10.37,2013-05-04 03:28:00,
2013-05-04 04:33:00,38.0,37.2,29.75,North,353,0.0,0.0,97,0.00,CLR,,0.00,0.0,WeatherDisplay:10.37,2013-05-04 03:33:00,
2013-05-04 04:38:00,37.9,36.9,29.75,SW,227,0.0,0.0,96,0.00,CLR,,0.00,0.0,WeatherDisplay:10.37,2013-05-04 03:38:00,
2013-05-04 04:43:00,37.8,37.0,29.75,SW,229,0.0,0.0,97,0.00,CLR,,0.00,0.0,WeatherDisplay:10.37,2013-05-04 03:43:00,
2013-05-04 04:49:00,37.6,36.8,29.75,SW,229,0.0,0.2,97,0.00,CLR,,0.00,0.0,WeatherDisplay:10.37,2013-05-04 03:49:00,
2013-05-04 04:54:00,37.5,36.5,29.75,SW,229,0.0,0.0,96,0.00,CLR,,0.00,0.0,WeatherDisplay:10.37,2013-05-04 03:54:00,
2013-05-04 04:59:00,37.3,36.5,29.75,SW,229,0.0,0.0,97,0.00,CLR,,0.00,0.0,WeatherDisplay:10.37,2013-05-04 03:59:00,
2013-05-04 05:01:00,37.3,36.5,29.75,SW,229,1.0,1.0,97,0.00,OVC,,0.00,0.0,WeatherDisplay:10.37,2013-05-04 04:01:00,
2013-05-04 05:02:00,37.3,36.5,29.75,SW,229,1.2,1.2,97,0.00,OVC,,0.00,0.0,WeatherDisplay:10.37,2013-05-04 04:02:00,
2013-05-04 05:03:00,37.3,36.5,29.75,SW,229,2.3,2.3,97,0.00,OVC,,0.00,0.0,WeatherDisplay:10.37,2013-05-04 04:03:00,
2013-05-04 05:04:00,37.3,36.5,29.75,SW,229,1.2,1.2,97,0.00,OVC,,0.00,0.0,WeatherDisplay:10.37,2013-05-04 04:04:00,
2013-05-04 05:09:00,37.5,36.7,29.75,SW,232,1.2,1.2,97,0.00,OVC,,0.00,0.0,WeatherDisplay:10.37,2013-05-04 04:09:00,
2013-05-04 05:14:00,37.5,36.7,29.75,SW,232,0.0,0.0,97,0.00,OVC,,0.00,5.0,WeatherDisplay:10.37,2013-05-04 04:14:00,
2013-05-04 05:19:00,37.5,36.7,29.76,SW,232,0.0,0.0,97,0.00,OVC,,0.00,5.0,WeatherDisplay:10.37,2013-05-04 04:19:00,
2013-05-04 05:24:00,37.5,36.7,29.76,SW,232,0.0,0.0,97,0.00,OVC,,0.00,5.0,WeatherDisplay:10.37,2013-05-04 04:24:00,
2013-05-04 05:29:00,37.5,36.7,29.76,North,359,1.2,0.0,97,0.00,OVC,,0.00,5.0,WeatherDisplay:10.37,2013-05-04 04:29:00,
2013-05-04 05:34:00,37.3,36.5,29.76,North,0,2.3,2.3,97,0.00,OVC,,0.00,7.0,WeatherDisplay:10.37,2013-05-04 04:34:00,
2013-05-04 05:40:00,37.3,36.5,29.76,North,0,0.0,0.0,97,0.00,CLR,,0.00,11.0,WeatherDisplay:10.37,2013-05-04 04:40:00,
2013-05-04 05:45:00,37.3,36.5,29.75,SW,217,0.0,0.0,97,0.00,CLR,,0.00,14.0,WeatherDisplay:10.37,2013-05-04 04:45:00,
2013-05-04 05:50:00,37.5,37.0,29.75,SW,217,0.0,0.0,98,0.00,CLR,,0.00,18.0,WeatherDisplay:10.37,2013-05-04 04:50:00,
2013-05-04 05:55:00,37.8,37.3,29.75,West,280,2.3,2.3,98,0.00,SCT,,0.00,21.0,WeatherDisplay:10.37,2013-05-04 04:55:00,
2013-05-04 06:00:00,37.9,37.4,29.76,SW,232,3.5,3.5,98,0.00,FEW,,0.00,28.0,WeatherDisplay:10.37,2013-05-04 05:00:00,
2013-05-04 06:05:00,37.9,37.4,29.76,SW,232,0.0,0.0,98,0.00,SCT,,0.00,32.0,WeatherDisplay:10.37,2013-05-04 05:05:00,
2013-05-04 06:11:00,37.9,37.4,29.76,North,0,0.0,0.0,98,0.00,SCT,,0.00,37.0,WeatherDisplay:10.37,2013-05-04 05:11:00,
2013-05-04 06:16:00,38.0,37.5,29.76,West,277,2.3,2.3,98,0.00,SCT,,0.00,42.0,WeatherDisplay:10.37,2013-05-04 05:16:00,
2013-05-04 06:21:00,38.0,37.5,29.76,West,274,0.0,0.0,98,0.00,SCT,,0.00,49.0,WeatherDisplay:10.37,2013-05-04 05:21:00,
2013-05-04 06:26:00,38.2,37.7,29.76,SW,222,3.5,3.5,98,0.00,SCT,,0.00,55.0,WeatherDisplay:10.37,2013-05-04 05:26:00,
2013-05-04 06:31:00,38.5,38.0,29.76,NNW,342,2.3,2.3,98,0.00,SCT,,0.00,67.0,WeatherDisplay:10.37,2013-05-04 05:31:00,
2013-05-04 06:36:00,38.8,38.3,29.76,NNW,347,2.3,2.3,98,0.00,FEW,,0.00,79.0,WeatherDisplay:10.37,2013-05-04 05:36:00,
2013-05-04 06:42:00,39.1,38.6,29.76,WNW,292,0.0,0.0,98,0.00,FEW,,0.00,88.0,WeatherDisplay:10.37,2013-05-04 05:42:00,
2013-05-04 06:47:00,39.3,38.8,29.76,WNW,285,0.0,0.0,98,0.00,SCT,,0.00,88.0,WeatherDisplay:10.37,2013-05-04 05:47:00,
2013-05-04 06:52:00,39.5,39.0,29.76,NW,322,3.5,3.5,98,0.00,SCT,,0.00,86.0,WeatherDisplay:10.37,2013-05-04 05:52:00,
2013-05-04 06:57:00,39.6,39.1,29.76,NW,306,1.2,0.0,98,0.00,SCT,,0.00,95.0,WeatherDisplay:10.37,2013-05-04 05:57:00,
2013-05-04 07:02:00,39.8,39.3,29.77,SW,222,0.0,0.0,98,0.00,SCT,,0.00,97.0,WeatherDisplay:10.37,2013-05-04 06:02:00,
2013-05-04 07:07:00,39.9,39.4,29.77,West,281,4.6,4.6,98,0.00,SCT,,0.00,102.0,WeatherDisplay:10.37,2013-05-04 06:07:00,
2013-05-04 07:13:00,40.1,39.6,29.77,NW,318,5.8,5.8,98,0.00,SCT,,0.00,109.0,WeatherDisplay:10.37,2013-05-04 06:13:00,
2013-05-04 07:18:00,40.2,39.7,29.77,NW,313,0.0,0.0,98,0.00,SCT,,0.00,113.0,WeatherDisplay:10.37,2013-05-04 06:18:00,
2013-05-04 07:23:00,40.3,39.8,29.77,NW,304,3.5,3.5,98,0.00,SCT,,0.00,116.0,WeatherDisplay:10.37,2013-05-04 06:23:00,
2013-05-04 07:28:00,40.5,40.0,29.77,WNW,299,4.6,4.6,98,0.00,BKN,,0.00,102.0,WeatherDisplay:10.37,2013-05-04 06:28:00,
2013-05-04 07:33:00,40.5,39.7,29.76,WNW,282,3.5,3.5,97,0.00,BKN,,0.00,109.0,WeatherDisplay:10.37,2013-05-04 06:33:00,
2013-05-04 07:38:00,40.6,39.8,29.77,NW,318,2.3,2.3,97,0.00,BKN,,0.00,121.0,WeatherDisplay:10.37,2013-05-04 06:38:00,
2013-05-04 07:43:00,40.8,40.0,29.77,West,277,3.5,3.5,97,0.00,SCT,,0.00,134.0,WeatherDisplay:10.37,2013-05-04 06:43:00,
2013-05-04 07:49:00,41.1,40.0,29.77,SW,230,3.5,3.5,96,0.00,SCT,,0.00,146.0,WeatherDisplay:10.37,2013-05-04 06:49:00,
2013-05-04 07:54:00,41.3,40.2,29.77,WSW,237,4.6,4.6,96,0.00,SCT,,0.00,150.0,WeatherDisplay:10.37,2013-05-04 06:54:00,
2013-05-04 07:59:00,41.6,40.0,29.78,North,0,1.2,1.2,94,0.00,BKN,,0.00,128.0,WeatherDisplay:10.37,2013-05-04 06:59:00,
2013-05-04 08:04:00,41.9,40.3,29.78,NW,312,3.5,3.5,94,0.00,BKN,,0.00,148.0,WeatherDisplay:10.37,2013-05-04 07:04:00,
2013-05-04 08:09:00,42.2,40.3,29.78,WSW,237,2.3,2.3,93,0.00,FEW,,0.00,199.0,WeatherDisplay:10.37,2013-05-04 07:09:00,
2013-05-04 08:14:00,42.3,40.1,29.78,WSW,243,2.3,2.3,92,0.00,FEW,,0.00,303.0,WeatherDisplay:10.37,2013-05-04 07:14:00,
2013-05-04 08:19:00,43.1,40.7,29.78,NNW,339,2.3,2.3,91,0.00,CLR,,0.00,334.0,WeatherDisplay:10.37,2013-05-04 07:19:00,
2013-05-04 08:24:00,43.9,40.9,29.78,NW,319,5.8,5.8,89,0.00,CLR,,0.00,348.0,WeatherDisplay:10.37,2013-05-04 07:24:00,
2013-05-04 08:29:00,44.3,40.4,29.78,SW,232,4.6,4.6,86,0.00,CLR,,0.00,373.0,WeatherDisplay:10.37,2013-05-04 07:29:00,
2013-05-04 08:34:00,44.9,40.7,29.78,NW,309,8.1,8.1,85,0.00,CLR,,0.00,452.0,WeatherDisplay:10.37,2013-05-04 07:34:00,
2013-05-04 08:39:00,45.5,40.9,29.78,NW,318,6.9,6.9,84,0.00,CLR,,0.00,468.0,WeatherDisplay:10.37,2013-05-04 07:39:00,
2013-05-04 08:44:00,45.8,40.9,29.78,North,350,11.5,11.5,83,0.00,CLR,,0.00,486.0,WeatherDisplay:10.37,2013-05-04 07:44:00,
2013-05-04 08:49:00,45.7,40.8,29.78,WNW,301,6.9,6.9,83,0.00,CLR,,0.00,396.0,WeatherDisplay:10.37,2013-05-04 07:49:00,
2013-05-04 08:54:00,45.4,40.2,29.78,NNW,344,5.8,5.8,82,0.00,FEW,,0.00,387.0,WeatherDisplay:10.37,2013-05-04 07:54:00,
2013-05-04 08:59:00,45.2,40.0,29.78,NW,311,11.5,11.5,82,0.00,CLR,,0.00,370.0,WeatherDisplay:10.37,2013-05-04 07:59:00,
2013-05-04 09:04:00,45.2,40.0,29.79,WNW,298,8.1,8.1,82,0.00,FEW,,0.00,348.0,WeatherDisplay:10.37,2013-05-04 08:04:00,
2013-05-04 09:09:00,45.4,40.2,29.79,NNW,343,6.9,6.9,82,0.00,CLR,,0.00,435.0,WeatherDisplay:10.37,2013-05-04 08:09:00,
2013-05-04 09:14:00,46.0,41.1,29.79,WNW,296,10.4,10.4,83,0.00,CLR,,0.00,479.0,WeatherDisplay:10.37,2013-05-04 08:14:00,
2013-05-04 09:19:00,46.4,41.5,29.79,NW,309,5.8,5.8,83,0.00,CLR,,0.00,521.0,WeatherDisplay:10.37,2013-05-04 08:19:00,
2013-05-04 09:24:00,46.7,41.5,29.79,SSW,213,8.1,8.1,82,0.00,CLR,,0.00,505.0,WeatherDisplay:10.37,2013-05-04 08:24:00,
2013-05-04 09:29:00,47.0,41.5,29.79,WNW,292,11.5,11.5,81,0.00,CLR,,0.00,547.0,WeatherDisplay:10.37,2013-05-04 08:29:00,
2013-05-04 09:35:00,47.0,41.5,29.79,NW,304,9.2,9.2,81,0.00,CLR,,0.00,563.0,WeatherDisplay:10.37,2013-05-04 08:35:00,
2013-05-04 09:40:00,47.1,41.9,29.79,North,0,11.5,11.5,82,0.00,CLR,,0.00,600.0,WeatherDisplay:10.37,2013-05-04 08:40:00,
2013-05-04 09:45:00,47.1,41.9,29.79,WNW,299,3.0,12.0,82,0.00,CLR,,0.00,612.0,WeatherDisplay:10.37,2013-05-04 08:45:00,
2013-05-04 09:50:00,47.0,41.1,29.79,SSW,208,10.4,10.4,80,0.00,OVC,,0.00,194.0,WeatherDisplay:10.37,2013-05-04 08:50:00,
2013-05-04 09:55:00,47.0,41.5,29.79,SSE,168,11.5,11.5,81,0.00,CLR,,0.00,582.0,WeatherDisplay:10.37,2013-05-04 08:55:00,
2013-05-04 10:00:00,47.6,41.7,29.79,North,0,8.1,8.1,80,0.00,FEW,,0.00,500.0,WeatherDisplay:10.37,2013-05-04 09:00:00,
2013-05-04 10:05:00,47.6,41.7,29.79,SW,222,8.1,8.1,80,0.00,CLR,,0.00,609.0,WeatherDisplay:10.37,2013-05-04 09:05:00,
2013-05-04 10:10:00,47.6,41.7,29.78,North,354,10.4,10.4,80,0.00,CLR,,0.00,607.0,WeatherDisplay:10.37,2013-05-04 09:10:00,
2013-05-04 10:16:00,47.7,41.2,29.78,North,0,11.5,11.5,78,0.00,CLR,,0.00,604.0,WeatherDisplay:10.37,2013-05-04 09:16:00,
2013-05-04 10:21:00,47.0,40.8,29.78,WNW,292,10.4,10.4,79,0.00,OVC,,0.00,197.0,WeatherDisplay:10.37,2013-05-04 09:21:00,
2013-05-04 10:26:00,46.4,40.9,29.79,WNW,296,11.5,11.5,81,0.00,BKN,,0.00,255.0,WeatherDisplay:10.37,2013-05-04 09:26:00,
2013-05-04 10:31:00,46.1,40.6,29.79,North,357,11.5,11.5,81,0.00,OVC,,0.00,236.0,WeatherDisplay:10.37,2013-05-04 09:31:00,
2013-05-04 10:36:00,46.2,41.0,29.79,North,356,8.1,8.1,82,0.00,BKN,,0.00,262.0,WeatherDisplay:10.37,2013-05-04 09:36:00,
2013-05-04 10:41:00,47.1,41.9,29.79,SW,219,8.1,8.1,82,0.00,CLR,,0.00,860.0,WeatherDisplay:10.37,2013-05-04 09:41:00,
2013-05-04 10:46:00,48.0,42.1,29.78,WSW,239,12.7,12.7,80,0.00,CLR,,0.00,681.0,WeatherDisplay:10.37,2013-05-04 09:46:00,
2013-05-04 10:52:00,48.3,41.8,29.78,WSW,241,13.8,13.8,78,0.00,CLR,,0.00,465.0,WeatherDisplay:10.37,2013-05-04 09:52:00,
2013-05-04 10:57:00,47.9,41.0,29.79,SW,216,17.0,17.0,77,0.00,BKN,,0.00,326.0,WeatherDisplay:10.37,2013-05-04 09:57:00,
2013-05-04 11:02:00,47.4,40.9,29.79,East,99,6.9,6.9,78,0.00,BKN,,0.00,310.0,WeatherDisplay:10.37,2013-05-04 10:02:00,
2013-05-04 11:07:00,47.4,41.2,29.80,NNW,347,4.6,4.6,79,0.00,BKN,,0.00,380.0,WeatherDisplay:10.37,2013-05-04 10:07:00,
2013-05-04 11:12:00,47.6,41.7,29.80,WNW,301,6.9,6.9,80,0.00,SCT,,0.00,465.0,WeatherDisplay:10.37,2013-05-04 10:12:00,
2013-05-04 11:17:00,48.2,42.3,29.80,WSW,241,9.2,9.2,80,0.00,FEW,,0.00,568.0,WeatherDisplay:10.37,2013-05-04 10:17:00,
2013-05-04 11:23:00,48.0,42.1,29.80,North,0,9.2,9.2,80,0.00,SCT,,0.00,433.0,WeatherDisplay:10.37,2013-05-04 10:23:00,
2013-05-04 11:28:00,47.6,42.1,29.80,North,0,10.4,10.4,81,0.00,OVC,,0.00,255.0,WeatherDisplay:10.37,2013-05-04 10:28:00,
2013-05-04 11:33:00,47.4,41.9,29.80,North,356,6.9,6.9,81,0.00,OVC,,0.00,266.0,WeatherDisplay:10.37,2013-05-04 10:33:00,
2013-05-04 11:38:00,47.1,41.9,29.79,WNW,296,8.1,8.1,82,0.00,OVC,,0.00,266.0,WeatherDisplay:10.37,2013-05-04 10:38:00,
2013-05-04 11:43:00,47.4,42.2,29.79,WNW,301,8.1,8.1,82,0.00,OVC,,0.00,280.0,WeatherDisplay:10.37,2013-05-04 10:43:00,
2013-05-04 11:49:00,47.3,42.1,29.79,NW,308,11.5,11.5,82,0.00,BKN,,0.00,331.0,WeatherDisplay:10.37,2013-05-04 10:49:00,
2013-05-04 11:54:00,47.3,42.1,29.79,North,352,8.1,8.1,82,0.00,BKN,,0.00,428.0,WeatherDisplay:10.37,2013-05-04 10:54:00,
2013-05-04 11:59:00,48.2,43.3,29.79,WNW,301,8.1,8.1,83,0.00,SCT,,0.00,454.0,WeatherDisplay:10.37,2013-05-04 10:59:00,
2013-05-04 12:04:00,49.1,43.8,29.79,SW,232,11.5,11.5,82,0.00,CLR,,0.00,753.0,WeatherDisplay:10.37,2013-05-04 11:04:00,
2013-05-04 12:09:00,49.2,43.6,29.79,SW,224,13.8,13.8,81,0.00,BKN,,0.00,269.0,WeatherDisplay:10.37,2013-05-04 11:09:00,
2013-05-04 12:15:00,48.0,42.4,29.80,NNW,343,11.5,11.5,81,0.00,OVC,,0.00,160.0,WeatherDisplay:10.37,2013-05-04 11:15:00,
2013-05-04 12:20:00,47.3,42.1,29.80,WSW,240,17.3,17.3,82,0.00,OVC,,0.00,139.0,WeatherDisplay:10.37,2013-05-04 11:20:00,
2013-05-04 12:25:00,46.7,41.8,29.80,SW,232,8.1,8.1,83,0.00,OVC,,0.00,123.0,WeatherDisplay:10.37,2013-05-04 11:25:00,
2013-05-04 12:30:00,46.2,41.3,29.80,North,356,11.5,11.5,83,0.00,OVC,,0.00,137.0,WeatherDisplay:10.37,2013-05-04 11:30:00,
2013-05-04 12:35:00,46.1,41.5,29.80,NNW,346,10.4,10.4,84,0.00,OVC,,0.00,150.0,WeatherDisplay:10.37,2013-05-04 11:35:00,
2013-05-04 12:40:00,46.0,41.4,29.80,NNW,347,11.5,11.5,84,0.00,OVC,,0.00,153.0,WeatherDisplay:10.37,2013-05-04 11:40:00,
2013-05-04 12:46:00,45.8,41.2,29.80,NW,311,5.8,5.8,84,0.00,OVC,,0.00,188.0,WeatherDisplay:10.37,2013-05-04 11:46:00,
2013-05-04 12:51:00,46.1,41.5,29.80,NNW,336,12.7,12.7,84,0.00,OVC,,0.00,201.0,WeatherDisplay:10.37,2013-05-04 11:51:00,
2013-05-04 12:56:00,46.2,41.9,29.80,SSE,164,10.4,10.4,85,0.00,OVC,,0.00,252.0,WeatherDisplay:10.37,2013-05-04 11:56:00,
2013-05-04 13:01:00,46.5,42.2,29.80,SW,232,17.3,17.3,85,0.00,OVC,,0.00,273.0,WeatherDisplay:10.37,2013-05-04 12:01:00,
2013-05-04 13:06:00,46.8,42.5,29.80,West,281,11.5,11.5,85,0.00,OVC,,0.00,195.0,WeatherDisplay:10.37,2013-05-04 12:06:00,
2013-05-04 13:11:00,46.8,42.5,29.80,North,352,11.5,11.5,85,0.00,OVC,,0.00,202.0,WeatherDisplay:10.37,2013-05-04 12:11:00,
2013-05-04 13:16:00,46.8,42.5,29.80,North,359,11.0,11.0,85,0.00,OVC,,0.00,167.0,WeatherDisplay:10.37,2013-05-04 12:16:00,
2013-05-04 13:21:00,46.8,42.8,29.80,WNW,287,11.5,11.5,86,0.00,OVC,,0.00,146.0,WeatherDisplay:10.37,2013-05-04 12:21:00,
2013-05-04 13:27:00,47.0,43.3,29.80,North,0,6.9,6.9,87,0.00,OVC,,0.00,160.0,WeatherDisplay:10.37,2013-05-04 12:27:00,
2013-05-04 13:32:00,47.0,43.3,29.80,North,0,16.1,16.1,87,0.00,OVC,,0.00,132.0,WeatherDisplay:10.37,2013-05-04 12:32:00,
2013-05-04 13:37:00,47.0,43.3,29.80,NNW,346,10.4,10.4,87,0.00,OVC,,0.00,130.0,WeatherDisplay:10.37,2013-05-04 12:37:00,
2013-05-04 13:42:00,47.1,43.7,29.80,NNW,347,16.1,16.1,88,0.00,OVC,,0.00,114.0,WeatherDisplay:10.37,2013-05-04 12:42:00,
2013-05-04 13:47:00,47.0,43.3,29.80,NNW,347,12.7,12.7,87,0.00,OVC,,0.00,187.0,WeatherDisplay:10.37,2013-05-04 12:47:00,
2013-05-04 13:52:00,47.3,43.3,29.80,East,93,6.9,6.9,86,0.00,OVC,,0.00,218.0,WeatherDisplay:10.37,2013-05-04 12:52:00,
2013-05-04 13:58:00,47.4,43.1,29.80,SW,229,11.5,11.5,85,0.00,OVC,,0.00,100.0,WeatherDisplay:10.37,2013-05-04 12:58:00,
2013-05-04 14:03:00,47.3,43.0,29.80,NNW,332,13.8,13.8,85,0.00,OVC,,0.00,88.0,WeatherDisplay:10.37,2013-05-04 13:03:00,
2013-05-04 14:04:00,47.3,43.0,29.81,NNW,347,10.4,10.4,85,0.00,OVC,,0.00,86.0,WeatherDisplay:10.37,2013-05-04 13:04:00,
2013-05-04 14:09:00,47.3,43.3,29.80,WNW,289,11.5,11.5,86,0.00,OVC,,0.00,91.0,WeatherDisplay:10.37,2013-05-04 13:09:00,
2013-05-04 14:14:00,47.1,43.1,29.81,North,0,13.8,13.8,86,0.00,OVC,,0.00,86.0,WeatherDisplay:10.37,2013-05-04 13:14:00,
2013-05-04 14:20:00,47.0,43.0,29.80,North,350,12.0,12.0,86,0.00,OVC,,0.00,106.0,WeatherDisplay:10.37,2013-05-04 13:20:00,
2013-05-04 14:25:00,47.0,43.0,29.80,North,0,9.0,9.0,86,0.00,OVC,,0.00,118.0,WeatherDisplay:10.37,2013-05-04 13:25:00,
2013-05-04 14:30:00,47.1,43.4,29.80,North,353,11.5,11.5,87,0.00,OVC,,0.00,106.0,WeatherDisplay:10.37,2013-05-04 13:30:00,
2013-05-04 14:35:00,47.1,43.4,29.80,North,0,8.1,8.1,87,0.00,OVC,,0.00,111.0,WeatherDisplay:10.37,2013-05-04 13:35:00,
2013-05-04 14:40:00,47.3,43.6,29.80,SSW,205,12.7,12.7,87,0.00,OVC,,0.00,150.0,WeatherDisplay:10.37,2013-05-04 13:40:00,
2013-05-04 14:45:00,47.3,43.3,29.80,SW,232,11.5,11.5,86,0.00,OVC,,0.00,130.0,WeatherDisplay:10.37,2013-05-04 13:45:00,
2013-05-04 14:50:00,47.4,43.4,29.80,North,350,17.3,17.3,86,0.00,OVC,,0.00,155.0,WeatherDisplay:10.37,2013-05-04 13:50:00,
2013-05-04 14:56:00,47.6,43.3,29.80,North,0,11.5,11.5,85,0.00,OVC,,0.00,143.0,WeatherDisplay:10.37,2013-05-04 13:56:00,
2013-05-04 15:01:00,47.7,43.4,29.80,SE,136,12.7,12.7,85,0.00,OVC,,0.00,130.0,WeatherDisplay:10.37,2013-05-04 14:01:00,
2013-05-04 15:06:00,47.7,43.4,29.80,North,354,12.7,12.7,85,0.00,OVC,,0.00,88.0,WeatherDisplay:10.37,2013-05-04 14:06:00,
2013-05-04 15:11:00,47.7,43.4,29.81,North,0,11.0,11.0,85,0.00,OVC,,0.00,77.0,WeatherDisplay:10.37,2013-05-04 14:11:00,
2013-05-04 15:16:00,47.6,43.3,29.81,NW,320,10.4,10.4,85,0.00,OVC,,0.00,79.0,WeatherDisplay:10.37,2013-05-04 14:16:00,
2013-05-04 15:21:00,47.6,43.3,29.81,North,357,11.5,11.5,85,0.00,OVC,,0.00,70.0,WeatherDisplay:10.37,2013-05-04 14:21:00,
2013-05-04 15:26:00,47.6,43.3,29.81,WNW,282,11.5,11.5,85,0.00,OVC,,0.00,69.0,WeatherDisplay:10.37,2013-05-04 14:26:00,
2013-05-04 15:32:00,47.6,43.3,29.81,NNW,347,4.6,4.6,85,0.00,OVC,,0.00,83.0,WeatherDisplay:10.37,2013-05-04 14:32:00,
2013-05-04 15:37:00,47.6,43.3,29.81,WNW,285,6.9,6.9,85,0.00,OVC,,0.00,81.0,WeatherDisplay:10.37,2013-05-04 14:37:00,
2013-05-04 15:42:00,47.6,43.6,29.81,SW,233,12.7,12.7,86,0.00,OVC,,0.00,91.0,WeatherDisplay:10.37,2013-05-04 14:42:00,
2013-05-04 15:47:00,47.7,43.7,29.81,NW,306,8.1,8.1,86,0.00,OVC,,0.00,81.0,WeatherDisplay:10.37,2013-05-04 14:47:00,
2013-05-04 15:53:00,47.7,43.7,29.81,North,356,10.4,10.4,86,0.00,OVC,,0.00,83.0,WeatherDisplay:10.37,2013-05-04 14:53:00,
2013-05-04 15:58:00,47.7,43.7,29.81,SSW,196,5.8,5.8,86,0.00,OVC,,0.00,83.0,WeatherDisplay:10.37,2013-05-04 14:58:00,
2013-05-04 16:03:00,47.7,43.7,29.81,WNW,302,10.4,10.4,86,0.00,OVC,,0.00,81.0,WeatherDisplay:10.37,2013-05-04 15:03:00,
2013-05-04 16:08:00,47.9,43.9,29.81,North,352,13.8,13.8,86,0.00,OVC,,0.00,88.0,WeatherDisplay:10.37,2013-05-04 15:08:00,
2013-05-04 16:13:00,47.9,43.6,29.82,North,359,11.5,11.5,85,0.00,OVC,,0.00,81.0,WeatherDisplay:10.37,2013-05-04 15:13:00,
2013-05-04 16:18:00,48.0,44.0,29.82,North,0,11.5,11.5,86,0.00,OVC,,0.00,104.0,WeatherDisplay:10.37,2013-05-04 15:18:00,
2013-05-04 16:23:00,48.0,44.0,29.82,North,0,12.7,12.7,86,0.00,OVC,,0.00,97.0,WeatherDisplay:10.37,2013-05-04 15:23:00,
2013-05-04 16:29:00,48.2,44.2,29.82,North,0,9.2,9.2,86,0.00,OVC,,0.00,97.0,WeatherDisplay:10.37,2013-05-04 15:29:00,
2013-05-04 16:34:00,48.3,44.3,29.82,South,179,6.9,6.9,86,0.00,OVC,,0.00,86.0,WeatherDisplay:10.37,2013-05-04 15:34:00,
2013-05-04 16:39:00,48.3,44.3,29.82,North,349,11.5,11.5,86,0.00,OVC,,0.00,77.0,WeatherDisplay:10.37,2013-05-04 15:39:00,
2013-05-04 16:44:00,48.3,44.3,29.82,North,0,6.9,6.9,86,0.00,OVC,,0.00,63.0,WeatherDisplay:10.37,2013-05-04 15:44:00,
2013-05-04 16:49:00,48.3,44.6,29.82,NW,308,11.5,11.5,87,0.00,OVC,,0.00,60.0,WeatherDisplay:10.37,2013-05-04 15:49:00,
2013-05-04 16:54:00,48.3,44.6,29.82,NW,305,13.8,13.8,87,0.00,OVC,,0.00,69.0,WeatherDisplay:10.37,2013-05-04 15:54:00,
2013-05-04 16:59:00,48.2,44.5,29.82,SSW,203,11.5,11.5,87,0.00,OVC,,0.00,62.0,WeatherDisplay:10.37,2013-05-04 15:59:00,
2013-05-04 17:05:00,48.2,44.5,29.82,South,171,11.5,11.5,87,0.00,OVC,,0.00,55.0,WeatherDisplay:10.37,2013-05-04 16:05:00,
2013-05-04 17:10:00,48.3,44.9,29.82,North,350,11.5,11.5,88,0.00,OVC,,0.00,51.0,WeatherDisplay:10.37,2013-05-04 16:10:00,
2013-05-04 17:15:00,48.3,44.9,29.82,NW,315,8.1,8.1,88,0.00,OVC,,0.00,55.0,WeatherDisplay:10.37,2013-05-04 16:15:00,
2013-05-04 17:20:00,48.5,45.1,29.82,WNW,295,7.0,7.0,88,0.00,OVC,,0.00,53.0,WeatherDisplay:10.37,2013-05-04 16:20:00,
2013-05-04 17:26:00,48.5,45.1,29.82,North,357,16.1,16.1,88,0.00,OVC,,0.00,48.0,WeatherDisplay:10.37,2013-05-04 16:26:00,
2013-05-04 17:31:00,48.5,45.1,29.82,WNW,298,10.4,10.4,88,0.00,OVC,,0.00,48.0,WeatherDisplay:10.37,2013-05-04 16:31:00,
2013-05-04 17:36:00,48.5,45.1,29.82,North,0,11.5,11.5,88,0.00,OVC,,0.00,48.0,WeatherDisplay:10.37,2013-05-04 16:36:00,
2013-05-04 17:41:00,48.5,45.1,29.82,NW,312,11.5,11.5,88,0.00,OVC,,0.00,48.0,WeatherDisplay:10.37,2013-05-04 16:41:00,
2013-05-04 17:46:00,48.5,45.1,29.82,NNW,346,12.0,12.0,88,0.00,OVC,,0.00,39.0,WeatherDisplay:10.37,2013-05-04 16:46:00,
2013-05-04 17:51:00,48.6,45.2,29.82,NNW,346,12.7,12.7,88,0.00,OVC,,0.00,40.0,WeatherDisplay:10.37,2013-05-04 16:51:00,
2013-05-04 17:56:00,48.6,45.2,29.82,SSE,147,10.4,10.4,88,0.00,OVC,,0.00,37.0,WeatherDisplay:10.37,2013-05-04 16:56:00,
2013-05-04 18:01:00,48.6,45.2,29.82,NNW,333,10.4,10.4,88,0.00,OVC,,0.00,56.0,WeatherDisplay:10.37,2013-05-04 17:01:00,
2013-05-04 18:07:00,48.8,45.4,29.82,WSW,237,8.1,8.1,88,0.00,OVC,,0.00,65.0,WeatherDisplay:10.37,2013-05-04 17:07:00,
2013-05-04 18:12:00,48.8,45.4,29.82,NNW,346,10.4,10.4,88,0.00,OVC,,0.00,60.0,WeatherDisplay:10.37,2013-05-04 17:12:00,
2013-05-04 18:17:00,48.9,45.5,29.82,NNW,329,11.5,11.5,88,0.00,OVC,,0.00,72.0,WeatherDisplay:10.37,2013-05-04 17:17:00,
2013-05-04 18:22:00,49.1,45.7,29.82,North,0,11.0,11.0,88,0.00,OVC,,0.00,83.0,WeatherDisplay:10.37,2013-05-04 17:22:00,
2013-05-04 18:27:00,49.1,45.7,29.82,WSW,241,5.8,5.8,88,0.00,OVC,,0.00,70.0,WeatherDisplay:10.37,2013-05-04 17:27:00,
2013-05-04 18:33:00,49.1,45.7,29.83,North,354,4.6,4.6,88,0.00,OVC,,0.00,90.0,WeatherDisplay:10.37,2013-05-04 17:33:00,
2013-05-04 18:38:00,49.2,45.8,29.83,NNW,346,6.9,6.9,88,0.00,OVC,,0.00,42.0,WeatherDisplay:10.37,2013-05-04 17:38:00,
2013-05-04 18:43:00,49.2,45.8,29.83,NNW,344,4.6,4.6,88,0.00,OVC,,0.00,58.0,WeatherDisplay:10.37,2013-05-04 17:43:00,
2013-05-04 18:48:00,49.1,45.7,29.83,North,353,3.5,3.5,88,0.00,OVC,,0.00,49.0,WeatherDisplay:10.37,2013-05-04 17:48:00,
2013-05-04 18:53:00,49.1,46.0,29.83,NNW,343,3.5,3.5,89,0.00,OVC,,0.00,62.0,WeatherDisplay:10.37,2013-05-04 17:53:00,
2013-05-04 18:58:00,48.9,45.8,29.83,WSW,237,4.6,4.6,89,0.00,OVC,,0.00,74.0,WeatherDisplay:10.37,2013-05-04 17:58:00,
2013-05-04 19:03:00,49.1,46.0,29.83,East,99,6.9,6.9,89,0.00,OVC,,0.00,65.0,WeatherDisplay:10.37,2013-05-04 18:03:00,
2013-05-04 19:08:00,49.1,46.0,29.83,NW,305,6.9,6.9,89,0.00,OVC,,0.00,42.0,WeatherDisplay:10.37,2013-05-04 18:08:00,
2013-05-04 19:13:00,49.1,46.0,29.83,North,354,6.9,6.9,89,0.00,OVC,,0.00,39.0,WeatherDisplay:10.37,2013-05-04 18:13:00,
2013-05-04 19:19:00,48.9,45.8,29.83,NW,312,7.0,7.0,89,0.00,OVC,,0.00,39.0,WeatherDisplay:10.37,2013-05-04 18:19:00,
2013-05-04 19:24:00,48.9,45.8,29.83,SW,236,4.6,4.6,89,0.00,OVC,,0.00,25.0,WeatherDisplay:10.37,2013-05-04 18:24:00,
2013-05-04 19:29:00,48.9,45.8,29.83,SW,224,12.7,12.7,89,0.00,OVC,,0.00,19.0,WeatherDisplay:10.37,2013-05-04 18:29:00,
2013-05-04 19:34:00,48.9,45.8,29.84,NW,313,7.0,7.0,89,0.00,OVC,,0.00,18.0,WeatherDisplay:10.37,2013-05-04 18:34:00,
2013-05-04 19:39:00,48.9,45.8,29.84,West,275,6.9,6.9,89,0.00,OVC,,0.00,19.0,WeatherDisplay:10.37,2013-05-04 18:39:00,
2013-05-04 19:44:00,49.1,45.7,29.83,NW,305,5.8,5.8,88,0.00,OVC,,0.00,18.0,WeatherDisplay:10.37,2013-05-04 18:44:00,
2013-05-04 19:50:00,49.1,45.7,29.84,NW,311,3.5,3.5,88,0.00,OVC,,0.00,14.0,WeatherDisplay:10.37,2013-05-04 18:50:00,
2013-05-04 19:55:00,49.2,45.8,29.84,WNW,299,6.9,6.9,88,0.00,OVC,,0.00,14.0,WeatherDisplay:10.37,2013-05-04 18:55:00,
2013-05-04 20:00:00,49.2,45.8,29.84,NW,319,5.8,5.8,88,0.00,OVC,,0.00,16.0,WeatherDisplay:10.37,2013-05-04 19:00:00,
2013-05-04 20:05:00,49.2,45.8,29.84,SW,229,3.5,3.5,88,0.00,OVC,,0.00,16.0,WeatherDisplay:10.37,2013-05-04 19:05:00,
2013-05-04 20:10:00,49.2,45.8,29.84,North,354,6.9,6.9,88,0.00,OVC,,0.00,18.0,WeatherDisplay:10.37,2013-05-04 19:10:00,
2013-05-04 20:16:00,49.1,45.7,29.84,WNW,288,3.5,3.5,88,0.00,OVC,,0.00,14.0,WeatherDisplay:10.37,2013-05-04 19:16:00,
2013-05-04 20:21:00,49.1,45.7,29.84,WNW,295,5.0,5.0,88,0.00,OVC,,0.00,16.0,WeatherDisplay:10.37,2013-05-04 19:21:00,
2013-05-04 20:26:00,49.1,45.7,29.84,West,280,5.8,5.8,88,0.00,OVC,,0.00,12.0,WeatherDisplay:10.37,2013-05-04 19:26:00,
2013-05-04 20:31:00,49.1,45.7,29.84,NNW,336,2.3,2.3,88,0.00,OVC,,0.00,12.0,WeatherDisplay:10.37,2013-05-04 19:31:00,
2013-05-04 20:36:00,48.9,45.8,29.84,WSW,239,2.3,2.3,89,0.00,OVC,,0.00,9.0,WeatherDisplay:10.37,2013-05-04 19:36:00,
2013-05-04 20:41:00,48.9,45.8,29.84,NW,309,4.6,4.6,89,0.00,BKN,,0.00,7.0,WeatherDisplay:10.37,2013-05-04 19:41:00,
2013-05-04 20:46:00,48.9,45.8,29.84,WNW,282,6.9,6.9,89,0.00,SCT,,0.00,7.0,WeatherDisplay:10.37,2013-05-04 19:46:00,
2013-05-04 20:51:00,48.9,45.8,29.84,SW,236,3.5,3.5,89,0.00,CLR,,0.00,5.0,WeatherDisplay:10.37,2013-05-04 19:51:00,
2013-05-04 20:56:00,48.9,45.8,29.85,WNW,299,4.6,4.6,89,0.00,OVC,,0.00,0.0,WeatherDisplay:10.37,2013-05-04 19:56:00,
2013-05-04 21:01:00,48.9,45.8,29.85,SW,236,4.6,4.6,89,0.00,OVC,,0.00,0.0,WeatherDisplay:10.37,2013-05-04 20:01:00,
2013-05-04 21:06:00,48.9,45.8,29.85,NNW,333,2.3,2.3,89,0.00,OVC,,0.00,0.0,WeatherDisplay:10.37,2013-05-04 20:06:00,
2013-05-04 21:11:00,48.9,45.8,29.85,SW,224,3.5,3.5,89,0.00,OVC,,0.00,0.0,WeatherDisplay:10.37,2013-05-04 20:11:00,
2013-05-04 21:17:00,48.8,45.7,29.85,WNW,282,6.9,6.9,89,0.00,OVC,,0.00,0.0,WeatherDisplay:10.37,2013-05-04 20:17:00,
2013-05-04 21:22:00,48.8,45.7,29.85,WNW,301,5.8,5.8,89,0.00,OVC,,0.00,0.0,WeatherDisplay:10.37,2013-05-04 20:22:00,
2013-05-04 21:27:00,48.6,45.5,29.85,NW,318,4.6,4.6,89,0.00,OVC,,0.00,0.0,WeatherDisplay:10.37,2013-05-04 20:27:00,
2013-05-04 21:32:00,48.6,45.5,29.85,NW,308,6.0,6.0,89,0.00,OVC,,0.00,0.0,WeatherDisplay:10.37,2013-05-04 20:32:00,
2013-05-04 21:37:00,48.6,45.5,29.85,North,0,5.0,5.0,89,0.00,CLR,,0.00,0.0,WeatherDisplay:10.37,2013-05-04 20:37:00,
2013-05-04 21:43:00,48.6,45.5,29.86,SW,233,5.0,5.0,89,0.00,CLR,,0.00,0.0,WeatherDisplay:10.37,2013-05-04 20:43:00,
2013-05-04 21:48:00,48.6,45.5,29.86,North,359,8.0,8.0,89,0.00,CLR,,0.00,0.0,WeatherDisplay:10.37,2013-05-04 20:48:00,
2013-05-04 21:53:00,48.6,45.5,29.86,North,359,8.1,8.1,89,0.00,CLR,,0.00,0.0,WeatherDisplay:10.37,2013-05-04 20:53:00,
2013-05-04 21:58:00,48.6,45.5,29.86,North,359,5.8,5.8,89,0.00,CLR,,0.00,0.0,WeatherDisplay:10.37,2013-05-04 20:58:00,
2013-05-04 22:03:00,48.6,45.5,29.86,NW,318,3.0,3.0,89,0.00,CLR,,0.00,0.0,WeatherDisplay:10.37,2013-05-04 21:03:00,
2013-05-04 22:08:00,48.8,45.7,29.86,SW,234,8.1,8.1,89,0.00,CLR,,0.00,0.0,WeatherDisplay:10.37,2013-05-04 21:08:00,
2013-05-04 22:14:00,48.8,45.4,29.86,SW,233,3.5,3.5,88,0.00,CLR,,0.00,0.0,WeatherDisplay:10.37,2013-05-04 21:14:00,
2013-05-04 22:19:00,48.8,45.4,29.87,WNW,284,13.8,13.8,88,0.00,CLR,,0.00,0.0,WeatherDisplay:10.37,2013-05-04 21:19:00,
2013-05-04 22:24:00,48.8,45.4,29.87,North,349,5.8,5.8,88,0.00,CLR,,0.00,0.0,WeatherDisplay:10.37,2013-05-04 21:24:00,
2013-05-04 22:29:00,48.8,45.4,29.87,NW,309,3.5,3.5,88,0.00,CLR,,0.00,0.0,WeatherDisplay:10.37,2013-05-04 21:29:00,
2013-05-04 22:34:00,48.8,45.4,29.87,WNW,296,3.5,3.5,88,0.00,CLR,,0.00,0.0,WeatherDisplay:10.37,2013-05-04 21:34:00,
2013-05-04 22:39:00,48.9,45.5,29.87,WNW,301,10.4,10.4,88,0.00,CLR,,0.00,0.0,WeatherDisplay:10.37,2013-05-04 21:39:00,
2013-05-04 22:44:00,49.1,45.7,29.87,WNW,302,11.5,11.5,88,0.00,CLR,,0.00,0.0,WeatherDisplay:10.37,2013-05-04 21:44:00,
2013-05-04 22:50:00,49.4,45.7,29.87,SSE,147,10.4,10.4,87,0.00,CLR,,0.00,0.0,WeatherDisplay:10.37,2013-05-04 21:50:00,
2013-05-04 22:55:00,49.5,45.8,29.87,NW,308,9.2,9.2,87,0.00,CLR,,0.00,0.0,WeatherDisplay:10.37,2013-05-04 21:55:00,
2013-05-04 23:00:00,49.5,45.8,29.87,SW,236,10.0,10.0,87,0.00,CLR,,0.00,0.0,WeatherDisplay:10.37,2013-05-04 22:00:00,
2013-05-04 23:05:00,49.5,45.8,29.87,NW,322,6.9,6.9,87,0.00,CLR,,0.00,0.0,WeatherDisplay:10.37,2013-05-04 22:05:00,
2013-05-04 23:10:00,49.5,45.8,29.87,NW,313,2.3,2.3,87,0.00,CLR,,0.00,0.0,WeatherDisplay:10.37,2013-05-04 22:10:00,
2013-05-04 23:15:00,49.4,45.7,29.87,North,0,6.0,6.0,87,0.00,CLR,,0.00,0.0,WeatherDisplay:10.37,2013-05-04 22:15:00,
2013-05-04 23:21:00,49.4,45.7,29.87,NNW,346,4.6,4.6,87,0.00,CLR,,0.00,0.0,WeatherDisplay:10.37,2013-05-04 22:21:00,
2013-05-04 23:26:00,49.2,45.8,29.87,WNW,284,6.9,6.9,88,0.00,CLR,,0.00,0.0,WeatherDisplay:10.37,2013-05-04 22:26:00,
2013-05-04 23:31:00,49.2,45.8,29.87,NW,306,7.0,7.0,88,0.00,CLR,,0.00,0.0,WeatherDisplay:10.37,2013-05-04 22:31:00,
2013-05-04 23:36:00,49.2,45.8,29.87,NNW,333,8.1,8.1,88,0.00,CLR,,0.00,0.0,WeatherDisplay:10.37,2013-05-04 22:36:00,
2013-05-04 23:41:00,49.2,45.8,29.87,West,281,7.0,7.0,88,0.00,CLR,,0.00,0.0,WeatherDisplay:10.37,2013-05-04 22:41:00,
2013-05-04 23:46:00,49.1,45.7,29.87,NW,323,8.1,8.1,88,0.00,CLR,,0.00,0.0,WeatherDisplay:10.37,2013-05-04 22:46:00,
2013-05-04 23:51:00,49.1,45.7,29.87,WNW,302,3.0,3.0,88,0.00,CLR,,0.00,0.0,WeatherDisplay:10.37,2013-05-04 22:51:00,
2013-05-04 23:57:00,49.2,45.8,29.88,WNW,294,4.6,4.6,88,0.00,CLR,,0.00,0.0,WeatherDisplay:10.37,2013-05-04 22:57:00,